Location: ?????? ??????
(44.3742°N, 135.2221°E)
Time: 10:26:54
(UTC+00:00)

Cosmos 1535 Rocket - Pass Details

Date: 19 May 2025
Orbit: 947 x 1003 km, 83.0° (Epoch: 14 June)

Event Time Altitude Azimuth Distance (km) Brightness Sun altitude
Rises 14:29:55 0° 350° (N) 3,723 8.9 -25.4°
Reaches altitude 10° 14:32:28 10° 349° (NNW) 2,764 7.9 -25.5°
Maximum altitude 14:38:47 75° 265° (W) 1,019 4.5 -25.6°
Enters shadow 14:39:58 59° 202° (SSW) 1,127 4.5 -25.6°
